Location: Aurora Center
(43.5271°N, 98.5894°W)
Time: 08:42:03
(UTC-05:00)

ACS3 Solar Sail - Pass Details

Date: 25 June 2024
Orbit: 992 x 1023 km, 97.4° (Epoch: 11 July)

Event Time Altitude Azimuth Distance (km) Brightness Sun altitude
Exits shadow 23:16:04 17° 179° (S) 2,288 6.2 -15.7°
Maximum altitude 23:20:59 68° 260° (W) 1,064 5.1 -16.2°
Drops below altitude 10° 23:27:11 10° 343° (NNW) 2,765 8.4 -16.8°
Sets 23:29:42 0° 346° (NNW) 3,718 9.3 -17.0°
